Flag for Mexico Weather past 2 weeks in Cozumel, Quintana Roo, Mexico

Now
64 °F

Passing clouds.


Feels Like: 64 °F
Forecast: 74 / 82 °F
Wind: No wind

Location: Cozumel Civ / Mil

Current Time: Feb 1, 2015 at 12:08:15 AM

Latest Report: Jan 31, 2015 at 10:40 PM


Visibility: 7 mi

Pressure: 30.08 "Hg

Humidity: 94%

Dew point: 63 °F

Location of CozumelLocation

Historic Weather in Cozumel — Graph

°F

Cozumel temperature yesterday

Maximum temperature yesterday: 75 °F (at 12:45 PM)
Minimum temperature yesterday: 64 °F (at 4:48 AM)
Average temperature yesterday: 69 °F

Past Weeks' High & Low Weather Summary

 TemperatureHumidityPressure
High79 °F (Jan 19, 12:44 PM)100% (Jan 16, 10:47 PM)30.20 "Hg (Jan 16, 10:47 PM)
Low57 °F (Jan 29, 10:43 PM)50% (Jan 25, 1:44 PM)29.93 "Hg (Jan 20, 5:43 PM)
Average70 °F85%30.07 "Hg
* Reported Jan 16 10:47 PM — Jan 31 10:40 PM, Cozumel, Weather by CustomWeather, © 2014

Note: Actual official high and low records may vary slightly from our data, if they occured in-between our weather recording intervals... More about our weather records

Advertising

Cozumel weather history for previous 24 hours

 ConditionsComfort  
Time TempWeatherWind HumidityBarometerVisibility
10:40 PM
Jan 31
64 °FPassing clouds.No wind94%30.08 "Hg7 mi
9:44 PM66 °FPassing clouds.5 mph83%30.09 "Hg7 mi
8:50 PM66 °FPassing clouds.3 mph83%30.11 "Hg7 mi
7:54 PM64 °FPassing clouds.3 mph88%30.09 "Hg7 mi
6:45 PM66 °FClear.6 mph83%30.07 "Hg7 mi
5:41 PM68 °FPassing clouds.7 mph78%30.04 "Hg8 mi
4:45 PM72 °FScattered clouds.7 mph73%30.06 "Hg8 mi
3:44 PM72 °FScattered clouds.7 mph73%30.06 "Hg8 mi
2:42 PM73 °FScattered clouds.12 mph69%30.09 "Hg8 mi
1:40 PM72 °FPartly sunny.7 mph69%30.08 "Hg8 mi
12:45 PM75 °FPartly sunny.14 mph65%30.10 "Hg8 mi
11:52 AM73 °FPartly sunny.13 mph69%30.10 "Hg8 mi
10:42 AM73 °FPartly sunny.10 mph69%30.15 "Hg8 mi
9:49 AM72 °FPartly sunny.7 mph73%30.16 "Hg8 mi
8:53 AM72 °FScattered clouds.8 mph73%30.17 "Hg8 mi
7:45 AM70 °FScattered clouds.7 mph78%30.12 "Hg8 mi
6:44 AM66 °FScattered clouds.8 mph83%30.10 "Hg8 mi
5:48 AM64 °FPassing clouds.6 mph88%30.07 "Hg7 mi
4:48 AM64 °FPassing clouds.3 mph83%30.09 "Hg7 mi
3:05 AM66 °FPassing clouds.5 mph83%30.12 "Hg7 mi
1:41 AM66 °FPassing clouds.5 mph78%30.11 "Hg7 mi
12:58 AM66 °FPassing clouds.7 mph78%30.12 "Hg7 mi
Weather by CustomWeather, © 2014

See weather overviewHow to use our weather pages